• Em Portugal
  • Lista de países
  • Para 7 dias
  • Temperatura da água
  • Mapas de satélite
  • Mapa do tempo
  • Widgets de tempo
  • user-avatar
    Iniciar Sessão

    Previsão horária em São Paulo

    Hoje, 26 Maio, Sábado

    Tempo Temperatura Precipitação Vento Pressão Humidade
    00:00 +16°C° 0 mm 2 m/s 703 mmHg 93%
    01:00 +16°C° 0 mm 2 m/s 703 mmHg 93%
    02:00 +15°C° 0 mm 2 m/s 703 mmHg 93%
    03:00 +15°C° 0 mm 2 m/s 702 mmHg 93%
    04:00 +15°C° 0 mm 2 m/s 703 mmHg 92%
    05:00 +15°C° 0 mm 2 m/s 703 mmHg 92%
    06:00 +15°C° 0 mm 1 m/s 703 mmHg 91%
    07:00 +16°C° 0 mm 1 m/s 703 mmHg 87%
    08:00 +17°C° 0 mm 2 m/s 703 mmHg 83%
    09:00 +18°C° 0 mm 2 m/s 704 mmHg 79%
    10:00 +21°C° 0 mm 1 m/s 704 mmHg 71%
    11:00 +22°C° 0 mm 1 m/s 704 mmHg 63%
    12:00 +24°C° 0 mm 1 m/s 704 mmHg 55%
    13:00 +24°C° 0,2 mm 1 m/s 703 mmHg 58%
    14:00 +23°C° 0,2 mm 2 m/s 703 mmHg 61%
    15:00 +23°C° 0,2 mm 2 m/s 703 mmHg 63%
    16:00 +21°C° 0,3 mm 2 m/s 702 mmHg 71%
    17:00 +19°C° 0,3 mm 2 m/s 702 mmHg 79%
    18:00 +18°C° 0,3 mm 2 m/s 702 mmHg 87%
    19:00 +17°C° 0 mm 2 m/s 703 mmHg 88%
    20:00 +17°C° 0 mm 2 m/s 703 mmHg 90%
    21:00 +16°C° 0 mm 1 m/s 703 mmHg 91%
    22:00 +16°C° 0 mm 1 m/s 703 mmHg 92%
    23:00 +16°C° 0 mm 1 m/s 703 mmHg 92%

    Amanhã, 27 Maio, Domingo

    Tempo Temperatura Precipitação Vento Pressão Humidade
    00:00 +15°C° 0 mm 1 m/s 703 mmHg 92%
    01:00 +15°C° 0 mm 1 m/s 703 mmHg 92%
    02:00 +15°C° 0 mm 1 m/s 703 mmHg 93%
    03:00 +15°C° 0 mm 1 m/s 703 mmHg 93%
    04:00 +14°C° 0 mm 1 m/s 703 mmHg 93%
    05:00 +14°C° 0 mm 1 m/s 703 mmHg 93%
    06:00 +14°C° 0 mm 1 m/s 703 mmHg 93%
    07:00 +15°C° 0 mm 1 m/s 704 mmHg 88%
    08:00 +16°C° 0 mm 1 m/s 704 mmHg 84%
    09:00 +19°C° 0 mm 1 m/s 705 mmHg 80%
    10:00 +20°C° 0 mm 1 m/s 705 mmHg 71%
    11:00 +21°C° 0 mm 2 m/s 705 mmHg 62%
    12:00 +24°C° 0 mm 2 m/s 705 mmHg 54%
    13:00 +24°C° 0 mm 2 m/s 705 mmHg 54%
    14:00 +24°C° 0 mm 2 m/s 704 mmHg 54%
    15:00 +24°C° 0 mm 2 m/s 704 mmHg 54%
    16:00 +21°C° 0 mm 2 m/s 704 mmHg 64%
    17:00 +20°C° 0 mm 2 m/s 704 mmHg 73%
    18:00 +18°C° 0 mm 2 m/s 703 mmHg 83%
    19:00 +17°C° 0 mm 2 m/s 704 mmHg 86%
    20:00 +17°C° 0 mm 2 m/s 704 mmHg 89%
    21:00 +16°C° 0 mm 2 m/s 704 mmHg 92%
    22:00 +16°C° 0 mm 2 m/s 704 mmHg 92%
    23:00 +16°C° 0 mm 2 m/s 704 mmHg 91%

    Depois de amanhã, 28 Maio, Segunda-feira

    Tempo Temperatura Precipitação Vento Pressão Humidade
    00:00 +16°C° 0 mm 2 m/s 705 mmHg 91%
    01:00 +16°C° 0 mm 2 m/s 704 mmHg 92%
    02:00 +15°C° 0 mm 2 m/s 704 mmHg 92%
    03:00 +15°C° 0 mm 2 m/s 704 mmHg 92%
    04:00 +15°C° 0 mm 2 m/s 704 mmHg 91%
    05:00 +15°C° 0 mm 2 m/s 704 mmHg 91%
    06:00 +15°C° 0 mm 2 m/s 703 mmHg 90%
    07:00 +16°C° 0 mm 2 m/s 704 mmHg 85%
    08:00 +17°C° 0 mm 2 m/s 705 mmHg 79%
    09:00 +18°C° 0 mm 2 m/s 706 mmHg 73%
    10:00 +20°C° 0 mm 2 m/s 706 mmHg 65%
    11:00 +21°C° 0 mm 3 m/s 706 mmHg 57%
    12:00 +24°C° 0 mm 3 m/s 706 mmHg 49%
    13:00 +24°C° 0 mm 3 m/s 705 mmHg 49%
    14:00 +24°C° 0 mm 3 m/s 705 mmHg 50%
    15:00 +24°C° 0 mm 3 m/s 704 mmHg 50%
    16:00 +21°C° 0 mm 3 m/s 704 mmHg 59%
    17:00 +20°C° 0 mm 3 m/s 704 mmHg 68%
    18:00 +18°C° 0 mm 2 m/s 704 mmHg 77%
    19:00 +17°C° 0 mm 2 m/s 704 mmHg 80%
    20:00 +17°C° 0 mm 2 m/s 704 mmHg 84%
    21:00 +16°C° 0 mm 2 m/s 705 mmHg 88%
    22:00 +16°C° 0 mm 2 m/s 705 mmHg 88%
    23:00 +15°C° 0 mm 2 m/s 705 mmHg 89%

    29 Maio, Terça-feira

    Tempo Temperatura Precipitação Vento Pressão Humidade
    00:00 +15°C° 0 mm 2 m/s 704 mmHg 89%
    01:00 +15°C° 0 mm 2 m/s 704 mmHg 89%
    02:00 +14°C° 0 mm 2 m/s 704 mmHg 89%
    03:00 +14°C° 0 mm 2 m/s 703 mmHg 88%
    04:00 +14°C° 0 mm 2 m/s 703 mmHg 88%
    05:00 +14°C° 0 mm 2 m/s 703 mmHg 87%
    06:00 +13°C° 0 mm 2 m/s 703 mmHg 86%
    07:00 +15°C° 0 mm 2 m/s 704 mmHg 79%
    08:00 +16°C° 0 mm 2 m/s 704 mmHg 72%
    09:00 +18°C° 0 mm 2 m/s 705 mmHg 65%
    10:00 +20°C° 0 mm 2 m/s 705 mmHg 56%
    11:00 +21°C° 0 mm 2 m/s 705 mmHg 48%
    12:00 +24°C° 0 mm 2 m/s 705 mmHg 39%
    13:00 +25°C° 0 mm 2 m/s 705 mmHg 39%
    14:00 +25°C° 0 mm 1 m/s 704 mmHg 39%
    15:00 +25°C° 0 mm 1 m/s 704 mmHg 39%
    16:00 +23°C° 0 mm 1 m/s 703 mmHg 48%
    17:00 +21°C° 0 mm 1 m/s 703 mmHg 58%
    18:00 +19°C° 0 mm 1 m/s 703 mmHg 68%
    19:00 +18°C° 0 mm 1 m/s 703 mmHg 73%
    20:00 +18°C° 0 mm 1 m/s 703 mmHg 78%
    21:00 +16°C° 0 mm 1 m/s 704 mmHg 83%
    22:00 +16°C° 0 mm 1 m/s 704 mmHg 84%
    23:00 +16°C° 0 mm 1 m/s 703 mmHg 85%

    30 Maio, Quarta-feira

    Tempo Temperatura Precipitação Vento Pressão Humidade
    00:00 +15°C° 0 mm 1 m/s 703 mmHg 87%
    01:00 +15°C° 0 mm 1 m/s 703 mmHg 86%
    02:00 +15°C° 0 mm 1 m/s 703 mmHg 86%
    03:00 +15°C° 0 mm 1 m/s 702 mmHg 85%
    04:00 +14°C° 0 mm 1 m/s 702 mmHg 85%
    05:00 +14°C° 0 mm 1 m/s 702 mmHg 84%
    06:00 +14°C° 0 mm 1 m/s 702 mmHg 84%
    07:00 +16°C° 0 mm 1 m/s 703 mmHg 78%
    08:00 +18°C° 0 mm 1 m/s 703 mmHg 72%
    09:00 +20°C° 0 mm 1 m/s 704 mmHg 65%
    10:00 +22°C° 0 mm 1 m/s 704 mmHg 59%
    11:00 +23°C° 0 mm 1 m/s 704 mmHg 52%
    12:00 +25°C° 0 mm 1 m/s 704 mmHg 46%
    13:00 +25°C° 0 mm 1 m/s 703 mmHg 46%
    14:00 +25°C° 0 mm 1 m/s 703 mmHg 46%
    15:00 +25°C° 0 mm 1 m/s 702 mmHg 46%
    16:00 +23°C° 0 mm 1 m/s 702 mmHg 55%
    17:00 +21°C° 0 mm 1 m/s 702 mmHg 63%
    18:00 +19°C° 0 mm 1 m/s 701 mmHg 72%
    19:00 +19°C° 0 mm 1 m/s 701 mmHg 75%
    20:00 +18°C° 0 mm 1 m/s 702 mmHg 78%
    21:00 +18°C° 0 mm 1 m/s 702 mmHg 80%
    22:00 +16°C° 0 mm 1 m/s 701 mmHg 82%
    23:00 +16°C° 0 mm 1 m/s 701 mmHg 83%

    31 Maio, Quinta-feira

    Tempo Temperatura Precipitação Vento Pressão Humidade
    00:00 +16°C° 0 mm 1 m/s 701 mmHg 84%
    01:00 +15°C° 0 mm 1 m/s 701 mmHg 84%
    02:00 +15°C° 0 mm 1 m/s 700 mmHg 84%
    03:00 +15°C° 0 mm 1 m/s 700 mmHg 84%
    04:00 +15°C° 0 mm 1 m/s 700 mmHg 84%
    05:00 +14°C° 0 mm 1 m/s 700 mmHg 83%
    06:00 +14°C° 0 mm 1 m/s 700 mmHg 82%
    07:00 +16°C° 0 mm 1 m/s 701 mmHg 75%
    08:00 +19°C° 0 mm 1 m/s 701 mmHg 67%
    09:00 +20°C° 0 mm 1 m/s 702 mmHg 60%
    10:00 +22°C° 0 mm 1 m/s 702 mmHg 53%
    11:00 +24°C° 0 mm 2 m/s 702 mmHg 46%
    12:00 +25°C° 0 mm 2 m/s 702 mmHg 39%
    13:00 +25°C° 0 mm 2 m/s 701 mmHg 39%
    14:00 +25°C° 0 mm 2 m/s 700 mmHg 39%
    15:00 +25°C° 0 mm 3 m/s 700 mmHg 39%
    16:00 +23°C° 0 mm 2 m/s 699 mmHg 46%
    17:00 +20°C° 0 mm 2 m/s 699 mmHg 53%
    18:00 +19°C° 0 mm 1 m/s 699 mmHg 60%
    19:00 +19°C° 0 mm 1 m/s 699 mmHg 62%
    20:00 +18°C° 0 mm 1 m/s 700 mmHg 63%
    21:00 +16°C° 0 mm 1 m/s 700 mmHg 64%
    22:00 +16°C° 0 mm 1 m/s 700 mmHg 64%
    23:00 +16°C° 0 mm 1 m/s 699 mmHg 64%
    Mostrar mais